Flag for Germany Weather past 2 weeks in Berlin, Berlin, Germany

Now
60 °F

Cool.


Feels Like: 60 °F
Forecast: 51 / 66 °F
Wind: 2 mph from South

Location: Berlin-Tempelhof

Current Time: Sep 3, 2015 at 11:48:09 AM

Latest Report: Sep 3, 2015 at 11:00 AM


Visibility: N/A

Pressure: 29.97 "Hg

Humidity: 75%

Dew point: 52 °F

Location of BerlinLocation

Historic Weather in Berlin — Graph

°F

Berlin temperature yesterday

Maximum temperature yesterday: 70 °F (at 5:00 PM)
Minimum temperature yesterday: 56 °F (at 11:00 PM)
Average temperature yesterday: 62 °F

Past Weeks' High & Low Weather Summary

 TemperatureHumidityPressure
High95 °F (Aug 31, 4:00 PM)97% (Aug 20, 4:00 AM)30.33 "Hg (Aug 20, 4:00 AM)
Low52 °F (Sep 3, 4:00 AM)20% (Aug 22, 5:00 PM)29.71 "Hg (Sep 1, 5:00 PM)
Average69 °F60%30.03 "Hg
* Reported Aug 19 10:00 AM — Sep 3 10:00 AM, Berlin, Weather by CustomWeather, © 2015

Note: Actual official high and low records may vary slightly from our data, if they occured in-between our weather recording intervals... More about our weather records

Advertising

Berlin weather history for previous 24 hours

 ConditionsComfort  
Time TempWeatherWind HumidityBarometerVisibility
10:00 AM
Thu, Sep 3
61 °FCool.3 mph72%29.97 "HgN/A
9:00 AM61 °FCool.3 mph68%29.96 "HgN/A
8:00 AM56 °FCool.2 mph79%29.97 "HgN/A
7:00 AM53 °FCool.1 mph85%29.98 "HgN/A
5:00 AM52 °FCool.1 mph85%29.99 "HgN/A
4:00 AM52 °FCool.1 mph84%29.99 "HgN/A
3:00 AM52 °FCool.1 mph82%30.00 "HgN/A
2:00 AM53 °FCool.1 mph81%30.00 "HgN/A
1:00 AM54 °FCool.1 mph78%30.00 "HgN/A
11:00 PM
Wed, Sep 2
56 °FCool.1 mph74%30.01 "HgN/A
10:00 PM59 °FCool.1 mph65%30.01 "HgN/A
9:00 PM63 °FMild.1 mph53%30.01 "HgN/A
8:00 PM65 °FMild.5 mph48%30.00 "HgN/A
7:00 PM68 °FMild.3 mph43%29.99 "HgN/A
6:00 PM69 °FMild.5 mph42%29.99 "HgN/A
5:00 PM70 °FMild.5 mph42%30.00 "HgN/A
4:00 PM69 °FMild.6 mph43%30.00 "HgN/A
3:00 PM69 °FMild.6 mph46%30.00 "HgN/A
2:00 PM67 °FMild.6 mph49%30.01 "HgN/A
1:00 PM66 °FPassing clouds.101 mph55%30.02 "Hg2 mi
12:00 PM66 °FMild.5 mph53%30.02 "HgN/A
11:00 AM63 °FMild.6 mph64%30.02 "HgN/A
Weather by CustomWeather, © 2015

See weather overviewHow to use our weather pages